Flag for U.S.A. Weather past 2 weeks in Annapolis, Maryland, U.S.A.

Now
63 °F

Clear.


Feels Like: 63 °F
Forecast: 61 / 73 °F
Wind: 3 mph from North

Location: Annapolis - United States Naval Academy

Current Time: Oct 2, 2014 at 6:46:08 AM

Latest Report: Oct 2, 2014 at 5:54 AM


Visibility: 10 mi

Pressure: 30.10 "Hg

Humidity: 90%

Dew point: 60 °F

Location of AnnapolisLocation

Historic Weather in Annapolis — Graph

°F

Annapolis temperature yesterday

Maximum temperature yesterday: 72 °F (at 3:54 PM)
Minimum temperature yesterday: 64 °F (at 5:54 AM)
Average temperature yesterday: 67 °F

Past Weeks' High & Low Weather Summary

 TemperatureHumidityPressure
High78 °F (Sep 27, 3:54 PM)97% (Sep 25, 4:00 AM)30.46 "Hg (Sep 25, 4:00 AM)
Low52 °F (Sep 23, 6:54 AM)40% (Sep 27, 4:54 PM)29.65 "Hg (Sep 21, 5:54 PM)
Average67 °F74%30.11 "Hg
* Reported Sep 17 5:54 AM — Oct 2 5:54 AM, Annapolis, Weather by CustomWeather, © 2014

Note: Actual official high and low records may vary slightly from our data, if they occured in-between our weather recording intervals... More about our weather records

Advertising

Annapolis weather history for previous 24 hours

 ConditionsComfort  
Time TempWeatherWind HumidityBarometerVisibility
5:54 AM
Oct 2
63 °FClear.3 mph90%30.10 "Hg10 mi
4:54 AM61 °FClear.No wind90%30.09 "Hg10 mi
3:54 AM64 °FClear.3 mph84%30.08 "Hg10 mi
2:54 AM64 °FClear.No wind84%30.07 "Hg10 mi
1:54 AM64 °FPassing clouds.No wind87%30.08 "Hg10 mi
12:54 AM66 °FPassing clouds.No wind81%30.07 "Hg10 mi
11:54 PM
Oct 1
66 °FPassing clouds.7 mph81%30.07 "Hg10 mi
10:54 PM66 °FPassing clouds.5 mph84%30.07 "Hg10 mi
9:54 PM65 °FFog.No wind91%30.06 "Hg6 mi
8:54 PM67 °FClear.No wind87%30.04 "Hg9 mi
7:54 PM67 °FClear.No wind85%30.03 "Hg10 mi
6:54 PM70 °FSunny.No wind76%30.02 "Hg10 mi
5:54 PM72 °FSunny.3 mph64%30.01 "Hg10 mi
4:54 PM72 °FPartly sunny.7 mph66%30.01 "Hg10 mi
3:54 PM72 °FPassing clouds.5 mph61%30.01 "Hg10 mi
2:54 PM71 °FMild.8 mph61%30.02 "Hg10 mi
1:54 PM70 °FMostly cloudy.N/A68%30.03 "Hg10 mi
12:54 PM68 °FMostly cloudy.N/A76%30.04 "Hg10 mi
11:54 AM68 °FMild.N/A76%30.05 "Hg10 mi
10:54 AM68 °FMild.N/A78%30.03 "Hg10 mi
9:54 AM67 °FMild.N/A79%30.03 "Hg10 mi
8:54 AM65 °FMostly cloudy.N/A85%30.02 "Hg10 mi
7:54 AM65 °FMild.N/A85%30.01 "Hg10 mi
6:54 AM65 °FClear.N/A85%29.98 "Hg10 mi
Weather by CustomWeather, © 2014

See weather overviewHow to use our weather pages